This demonstration page uses our WeatherBlox Daily Observations layout. Learn more.

Left ArrowRight Arrow

Hourly Observations for August 12, 2022

Temp ( °F °C ) Dew Point ( °F °C ) Humidity (%) Winds ( mph kmh ) Pressure ( in mb ) Visibility ( mi km ) Precip ( " mm )
12:52 am 00:52 Mostly Clear 75 23.9 66 18.9 74 74 E 5 7 30.08 1019 10 16 0.00 0.00
1:52 am 01:52 Partly Cloudy 74 23.3 65 18.3 74 74 SE 6 9 30.08 1019 10 16 0.00 0.00
2:52 am 02:52 Partly Cloudy 75 23.9 66 18.9 74 74 S 7 11 30.08 1019 10 16 0.00 0.00
3:52 am 03:52 Mostly Cloudy 73 22.8 66 18.9 79 79 SSE 8 13 30.08 1019 10 16 0.00 0.00
4:52 am 04:52 Partly Cloudy 72 22.2 65 18.3 79 79 SE 8 13 30.08 1019 10 16 0.00 0.00
5:52 am 05:52 Mostly Clear 71 21.7 65 18.3 81 81 SSE 9 15 30.08 1019 10 16 0.00 0.00
6:52 am 06:52 Mostly Sunny 70 21.1 64 17.8 81 81 SSE 8 13 30.09 1019 10 16 0.00 0.00
7:52 am 07:52 Mostly Sunny 73 22.8 63 17.2 71 71 SSE 9 15 30.09 1019 10 16 0.00 0.00
8:52 am 08:52 Partly Cloudy 77 25 62 16.7 60 60 S 9 15 30.10 1019 10 16 0.00 0.00
9:52 am 09:52 Partly Cloudy 81 27.2 61 16.1 51 51 S 9 15 30.10 1019 10 16 0.00 0.00
10:52 am 10:52 Partly Cloudy 83 28.3 60 15.6 46 46 S 10 17 30.09 1019 10 16 0.00 0.00
11:52 am 11:52 Partly Cloudy 86 30 61 16.1 43 43 S 13 20 30.07 1018 10 16 0.00 0.00
12:52 pm 12:52 Partly Cloudy 89 31.7 62 16.7 41 41 S 13 20 30.05 1018 10 16 0.00 0.00
1:52 pm 13:52 Mostly Cloudy 90 32.2 62 16.7 40 40 S 16 26 30.04 1017 10 16 0.00 0.00
2:52 pm 14:52 Mostly Cloudy 92 33.3 63 17.2 38 38 S 14 22 30.02 1017 10 16 0.00 0.00
3:52 pm 15:52 Mostly Cloudy 92 33.3 65 18.3 41 41 S 17 28 29.99 1016 10 16 0.00 0.00
4:52 pm 16:52 Partly Cloudy 92 33.3 65 18.3 41 41 S 23 37 29.98 1015 10 16 0.00 0.00
5:52 pm 17:52 Partly Cloudy 91 32.8 65 18.3 42 42 S 21 33 29.97 1015 10 16 0.00 0.00
6:52 pm 18:52 Partly Cloudy 89 31.7 64 17.8 44 44 S 16 26 29.96 1014 10 16 0.00 0.00
7:52 pm 19:52 Partly Cloudy 87 30.6 62 16.7 43 43 S 18 30 29.96 1015 10 16 0.00 0.00
8:52 pm 20:52 Partly Cloudy 84 28.9 63 17.2 49 49 S 15 24 29.96 1015 10 16 0.00 0.00
9:52 pm 21:52 Partly Cloudy 81 27.2 66 18.9 61 61 SSE 15 24 29.96 1015 10 16 0.00 0.00
10:52 pm 22:52 Partly Cloudy 79 26.1 67 19.4 67 67 S 15 24 29.94 1014 10 16 0.00 0.00
11:52 pm 23:52 Partly Cloudy 76 24.4 66 18.9 71 71 SSE 10 17 29.96 1015 10 16 0.00 0.00

Powered by AerisWeather